Sierra Vista, AZ

10:06 PM MST on August 22, 2017 (GMT -0700)
Sierra Vista Municipal-Libby Army Air Field

Weather History for KFHU - April, 2014

Change the Weather History Date:

Wednesday, April 16, 2014

  Actual Average Record
Temperature  
Mean Temperature 68 °F -  
Max Temperature 80 °F 73 °F 88 °F (1987)
Min Temperature 55 °F 51 °F 34 °F (2009)
Cooling Degree Days 2    
Growing Degree Days 18 (Base 50)    
Moisture  
Dew Point 3 °F    
Average Humidity 9    
Maximum Humidity 17    
Minimum Humidity 4    
Precipitation  
Precipitation 0.00 in - - ()
Sea Level Pressure  
Sea Level Pressure 29.76 in    
Wind  
Wind Speed 11 mph (WSW)    
Max Wind Speed 21 mph    
Max Gust Speed 32 mph    
Visibility 10 miles    
Events      
Averages and records for this station are not official NWS values.
T = Trace of Precipitation, MM = Missing Value Source: NWS Daily Summary

Daily Weather History Graph

Daily Weather History Graph

Search for Another Location

Airport or City:

Trip Planner

Search our weather history database for the weather conditions in past years. The results will help you decide how hot, cold, wet, or windy it might be!

Date:

Astronomy

Apr. 16, 2014 Rise Set
Actual Time 5:51 AM MST 6:50 PM MST
Civil Twilight 5:26 AM MST 7:16 PM MST
Nautical Twilight 4:57 AM MST 7:45 PM MST
Astronomical Twilight 4:26 AM MST 8:16 PM MST
Moon 8:32 PM MST (4/16) 6:45 AM MST (4/16)
Length of Visible Light 13h 49m
Length of Day
12h 59m
Full, 98% of the Moon is Illuminated
Apr 16
Full
Apr 22
Last Quarter
Apr 28
New
May 6
First Quarter
May 14
Full

Hourly Weather History & Observations

Time (MST) Temp. Dew Point Humidity Pressure Visibility Wind Dir Wind Speed Gust Speed Precip Events Conditions
12:55 AM 60.8 °F 6.8 °F 12% 29.78 in 10.0 mi SW 12.7 mph - N/A   Partly Cloudy
1:55 AM 59.0 °F 6.8 °F 13% 29.77 in 10.0 mi WSW 10.4 mph - N/A   Partly Cloudy
2:55 AM 57.2 °F 6.8 °F 13% 29.77 in 10.0 mi SW 9.2 mph - N/A   Scattered Clouds
3:55 AM 55.4 °F 6.8 °F 14% 29.76 in 10.0 mi SW 9.2 mph - N/A   Scattered Clouds
4:55 AM 55.4 °F 5.0 °F 13% 29.75 in 10.0 mi SSW 8.1 mph - N/A   Scattered Clouds
5:55 AM 57.2 °F 5.0 °F 12% 29.76 in 10.0 mi SSW 3.5 mph - N/A   Partly Cloudy
6:55 AM 55.4 °F 8.6 °F 15% 29.79 in 10.0 mi Calm Calm - N/A   Partly Cloudy
7:55 AM 66.2 °F 5.0 °F 9% 29.78 in 10.0 mi Calm Calm - N/A   Partly Cloudy
8:55 AM 69.8 °F 3.2 °F 7% 29.78 in 10.0 mi Calm Calm - N/A   Clear
9:55 AM 73.4 °F 1.4 °F 6% 29.79 in 10.0 mi Variable 4.6 mph - N/A   Clear
10:55 AM 77.0 °F -5.8 °F 4% 29.77 in 10.0 mi WSW 16.1 mph 25.3 mph N/A   Clear
11:55 AM 77.0 °F -0.4 °F 5% 29.75 in 10.0 mi WNW 6.9 mph 18.4 mph N/A   Clear
12:55 PM 78.8 °F -2.2 °F 4% 29.73 in 10.0 mi WNW 20.7 mph 32.2 mph N/A   Clear
1:55 PM 80.6 °F -2.2 °F 4% 29.72 in 10.0 mi West 17.3 mph 25.3 mph N/A   Clear
2:55 PM 78.8 °F -2.2 °F 4% 29.71 in 10.0 mi WSW 19.6 mph 31.1 mph N/A   Partly Cloudy
3:55 PM 78.8 °F -2.2 °F 4% 29.71 in 10.0 mi WSW 10.4 mph 27.6 mph N/A   Partly Cloudy
4:55 PM 78.8 °F -5.8 °F 4% 29.72 in 10.0 mi West 13.8 mph - N/A   Partly Cloudy
5:55 PM 75.2 °F -0.4 °F 5% 29.73 in 10.0 mi WSW 15.0 mph 24.2 mph N/A   Partly Cloudy
6:55 PM 71.6 °F -2.2 °F 5% 29.75 in 10.0 mi WSW 13.8 mph - N/A   Partly Cloudy
7:55 PM 69.8 °F -0.4 °F 6% 29.76 in 10.0 mi WSW 13.8 mph - N/A   Partly Cloudy
8:55 PM 68.0 °F 3.2 °F 8% 29.77 in 10.0 mi WSW 19.6 mph - N/A   Clear
9:55 PM 66.2 °F 10.4 °F 11% 29.79 in 10.0 mi SW 20.7 mph - N/A   Clear
10:55 PM 64.4 °F 15.8 °F 15% 29.81 in 10.0 mi SW 9.2 mph 19.6 mph N/A   Clear
11:55 PM 60.8 °F 15.8 °F 17% 29.83 in 10.0 mi NW 13.8 mph - N/A   Clear